Year,Month,Day,Hour,Minute,Value (Times are PST for temperature in C)
2008,06,25,00,00,10.30
2008,06,25,00,01,10.30
2008,06,25,00,02,10.30
2008,06,25,00,03,10.30
2008,06,25,00,04,10.30
2008,06,25,00,05,10.30
2008,06,25,00,06,10.30
2008,06,25,00,07,10.20
2008,06,25,00,08,10.20
2008,06,25,00,09,10.20
2008,06,25,00,10,10.20
2008,06,25,00,11,10.20
2008,06,25,00,12,10.20
2008,06,25,00,13,10.20
2008,06,25,00,14,10.20
2008,06,25,00,15,10.20
2008,06,25,00,16,10.20
2008,06,25,00,17,10.20
2008,06,25,00,18,10.30
2008,06,25,00,19,10.30
2008,06,25,00,20,10.20
2008,06,25,00,21,10.20
2008,06,25,00,22,10.20
2008,06,25,00,23,10.20
2008,06,25,00,24,10.20
2008,06,25,00,25,10.20
2008,06,25,00,26,10.20
2008,06,25,00,27,10.20
2008,06,25,00,28,10.10
2008,06,25,00,29,10.10
2008,06,25,00,30,10.10
2008,06,25,00,31,10.10
2008,06,25,00,32,10.10
2008,06,25,00,33,10.10
2008,06,25,00,34,10.00
2008,06,25,00,35,9.90
2008,06,25,00,36,9.90
2008,06,25,00,37,9.90
2008,06,25,00,38,9.80
2008,06,25,00,39,9.80
2008,06,25,00,40,9.70
2008,06,25,00,41,9.70
2008,06,25,00,42,9.70
2008,06,25,00,43,9.70
2008,06,25,00,44,9.70
2008,06,25,00,45,9.70
2008,06,25,00,46,9.60
2008,06,25,00,47,9.60
2008,06,25,00,48,9.60
2008,06,25,00,49,9.60
2008,06,25,00,50,9.50
2008,06,25,00,51,9.50
2008,06,25,00,52,9.50
2008,06,25,00,53,9.40
2008,06,25,00,54,9.40
2008,06,25,00,55,9.40
2008,06,25,00,56,9.30
2008,06,25,00,57,9.30
2008,06,25,00,58,9.30
2008,06,25,00,59,9.30
2008,06,25,01,00,9.30
2008,06,25,01,01,9.20
2008,06,25,01,02,9.20
2008,06,25,01,03,9.20
2008,06,25,01,04,9.20
2008,06,25,01,05,9.20
2008,06,25,01,06,9.20
2008,06,25,01,07,9.20
2008,06,25,01,08,9.20
2008,06,25,01,09,9.20
2008,06,25,01,10,9.10
2008,06,25,01,11,9.10
2008,06,25,01,12,9.10
2008,06,25,01,13,9.10
2008,06,25,01,14,9.10
2008,06,25,01,15,9.10
2008,06,25,01,16,9.10
2008,06,25,01,17,9.00
2008,06,25,01,18,9.00
2008,06,25,01,19,9.00
2008,06,25,01,20,9.00
2008,06,25,01,21,9.00
2008,06,25,01,22,9.00
2008,06,25,01,23,9.00
2008,06,25,01,24,9.00
2008,06,25,01,25,9.00
2008,06,25,01,26,8.90
2008,06,25,01,27,8.90
2008,06,25,01,28,8.90
2008,06,25,01,29,8.90
2008,06,25,01,30,8.90
2008,06,25,01,31,8.90
2008,06,25,01,32,8.90
2008,06,25,01,33,8.90
2008,06,25,01,34,8.90
2008,06,25,01,35,8.90
2008,06,25,01,36,8.90
2008,06,25,01,37,8.90
2008,06,25,01,38,9.00
2008,06,25,01,39,9.00
2008,06,25,01,40,9.00
2008,06,25,01,41,9.00
2008,06,25,01,42,9.00
2008,06,25,01,43,9.10
2008,06,25,01,44,9.10
2008,06,25,01,45,9.10
2008,06,25,01,46,9.20
2008,06,25,01,47,9.20
2008,06,25,01,48,9.20
2008,06,25,01,49,9.20
2008,06,25,01,50,9.20
2008,06,25,01,51,9.20
2008,06,25,01,52,9.20
2008,06,25,01,53,9.20
2008,06,25,01,54,9.20
2008,06,25,01,55,9.20
2008,06,25,01,56,9.20
2008,06,25,01,57,9.20
2008,06,25,01,58,9.10
2008,06,25,01,59,9.10
2008,06,25,02,00,9.10
2008,06,25,02,01,9.10
2008,06,25,02,02,9.10
2008,06,25,02,03,9.10
2008,06,25,02,04,9.00
2008,06,25,02,05,9.00
2008,06,25,02,06,9.00
2008,06,25,02,07,8.90
2008,06,25,02,08,8.90
2008,06,25,02,09,8.90
2008,06,25,02,10,8.90
2008,06,25,02,11,8.90
2008,06,25,02,12,8.80
2008,06,25,02,13,8.80
2008,06,25,02,14,8.80
2008,06,25,02,15,8.70
2008,06,25,02,16,8.70
2008,06,25,02,17,8.70
2008,06,25,02,18,8.70
2008,06,25,02,19,8.70
2008,06,25,02,20,8.70
2008,06,25,02,21,8.60
2008,06,25,02,22,8.60
2008,06,25,02,23,8.60
2008,06,25,02,24,8.60
2008,06,25,02,25,8.50
2008,06,25,02,26,8.50
2008,06,25,02,27,8.50
2008,06,25,02,28,8.50
2008,06,25,02,29,8.50
2008,06,25,02,30,8.40
2008,06,25,02,31,8.40
2008,06,25,02,32,8.40
2008,06,25,02,33,8.30
2008,06,25,02,34,8.30
2008,06,25,02,35,8.30
2008,06,25,02,36,8.30
2008,06,25,02,37,8.30
2008,06,25,02,38,8.20
2008,06,25,02,39,8.20
2008,06,25,02,40,8.20
2008,06,25,02,41,8.20
2008,06,25,02,42,8.20
2008,06,25,02,43,8.10
2008,06,25,02,44,8.10
2008,06,25,02,45,8.10
2008,06,25,02,46,8.00
2008,06,25,02,47,8.00
2008,06,25,02,48,8.00
2008,06,25,02,49,7.90
2008,06,25,02,50,7.90
2008,06,25,02,51,7.90
2008,06,25,02,52,7.90
2008,06,25,02,53,7.90
2008,06,25,02,54,7.80
2008,06,25,02,55,7.80
2008,06,25,02,56,7.90
2008,06,25,02,57,7.90
2008,06,25,02,58,7.90
2008,06,25,02,59,7.90
2008,06,25,03,00,7.90
2008,06,25,03,01,8.00
2008,06,25,03,02,8.00
2008,06,25,03,03,8.00
2008,06,25,03,04,8.00
2008,06,25,03,05,8.10
2008,06,25,03,06,8.10
2008,06,25,03,07,8.10
2008,06,25,03,08,8.00
2008,06,25,03,09,8.00
2008,06,25,03,10,8.00
2008,06,25,03,11,8.00
2008,06,25,03,12,8.00
2008,06,25,03,13,8.00
2008,06,25,03,14,8.00
2008,06,25,03,15,8.00
2008,06,25,03,16,7.90
2008,06,25,03,17,7.90
2008,06,25,03,18,7.90
2008,06,25,03,19,7.90
2008,06,25,03,20,7.90
2008,06,25,03,21,7.90
2008,06,25,03,22,7.90
2008,06,25,03,23,7.90
2008,06,25,03,24,7.80
2008,06,25,03,25,7.80
2008,06,25,03,26,7.80
2008,06,25,03,27,7.80
2008,06,25,03,28,7.80
2008,06,25,03,29,7.80
2008,06,25,03,30,7.80
2008,06,25,03,31,7.80
2008,06,25,03,32,7.80
2008,06,25,03,33,7.80
2008,06,25,03,34,7.80
2008,06,25,03,35,7.80
2008,06,25,03,36,7.80
2008,06,25,03,37,7.80
2008,06,25,03,38,7.80
2008,06,25,03,39,7.80
2008,06,25,03,40,7.80
2008,06,25,03,41,7.80
2008,06,25,03,42,7.80
2008,06,25,03,43,7.80
2008,06,25,03,44,7.80
2008,06,25,03,45,7.80
2008,06,25,03,46,7.80
2008,06,25,03,47,7.80
2008,06,25,03,48,7.80
2008,06,25,03,49,7.80
2008,06,25,03,50,7.80
2008,06,25,03,51,7.80
2008,06,25,03,52,7.80
2008,06,25,03,53,7.70
2008,06,25,03,54,7.70
2008,06,25,03,55,7.70
2008,06,25,03,56,7.70
2008,06,25,03,57,7.60
2008,06,25,03,58,7.60
2008,06,25,03,59,7.60
2008,06,25,04,00,7.60
2008,06,25,04,01,7.60
2008,06,25,04,02,7.50
2008,06,25,04,03,7.50
2008,06,25,04,04,7.50
2008,06,25,04,05,7.50
2008,06,25,04,06,7.40
2008,06,25,04,07,7.40
2008,06,25,04,08,7.40
2008,06,25,04,09,7.40
2008,06,25,04,10,7.40
2008,06,25,04,11,7.40
2008,06,25,04,12,7.40
2008,06,25,04,13,7.50
2008,06,25,04,14,7.50
2008,06,25,04,15,7.50
2008,06,25,04,16,7.50
2008,06,25,04,17,7.50
2008,06,25,04,18,7.60
2008,06,25,04,19,7.60
2008,06,25,04,20,7.60
2008,06,25,04,21,7.60
2008,06,25,04,22,7.60
2008,06,25,04,23,7.60
2008,06,25,04,24,7.60
2008,06,25,04,25,7.60
2008,06,25,04,26,7.70
2008,06,25,04,27,7.70
2008,06,25,04,28,7.70
2008,06,25,04,29,7.70
2008,06,25,04,30,7.70
2008,06,25,04,31,7.70
2008,06,25,04,32,7.70
2008,06,25,04,33,7.70
2008,06,25,04,34,7.70
2008,06,25,04,35,7.70
2008,06,25,04,36,7.70
2008,06,25,04,37,7.70
2008,06,25,04,38,7.70
2008,06,25,04,39,7.60
2008,06,25,04,40,7.60
2008,06,25,04,41,7.60
2008,06,25,04,42,7.60
2008,06,25,04,43,7.60
2008,06,25,04,44,7.60
2008,06,25,04,45,7.60
2008,06,25,04,46,7.60
2008,06,25,04,47,7.60
2008,06,25,04,48,7.60
2008,06,25,04,49,7.60
2008,06,25,04,50,7.60
2008,06,25,04,51,7.60
2008,06,25,04,52,7.60
2008,06,25,04,53,7.60
2008,06,25,04,54,7.60
2008,06,25,04,55,7.60
2008,06,25,04,56,7.60
2008,06,25,04,57,7.60
2008,06,25,04,58,7.60
2008,06,25,04,59,7.60
2008,06,25,05,00,7.60
2008,06,25,05,01,7.60
2008,06,25,05,02,7.60
2008,06,25,05,03,7.60
2008,06,25,05,04,7.70
2008,06,25,05,05,7.70
2008,06,25,05,06,7.70
2008,06,25,05,07,7.70
2008,06,25,05,08,7.70
2008,06,25,05,09,7.70
2008,06,25,05,10,7.60
2008,06,25,05,11,7.60
2008,06,25,05,12,7.60
2008,06,25,05,13,7.60
2008,06,25,05,14,7.60
2008,06,25,05,15,7.50
2008,06,25,05,16,7.50
2008,06,25,05,17,7.50
2008,06,25,05,18,7.50
2008,06,25,05,19,7.50
2008,06,25,05,20,7.50
2008,06,25,05,21,7.50
2008,06,25,05,22,7.40
2008,06,25,05,23,7.40
2008,06,25,05,24,7.30
2008,06,25,05,25,7.30
2008,06,25,05,26,7.30
2008,06,25,05,27,7.30
2008,06,25,05,28,7.30
2008,06,25,05,29,7.30
2008,06,25,05,30,7.30
2008,06,25,05,31,7.30
2008,06,25,05,32,7.30
2008,06,25,05,33,7.20
2008,06,25,05,34,7.20
2008,06,25,05,35,7.20
2008,06,25,05,36,7.20
2008,06,25,05,37,7.20
2008,06,25,05,38,7.20
2008,06,25,05,39,7.20
2008,06,25,05,40,7.20
2008,06,25,05,41,7.20
2008,06,25,05,42,7.20
2008,06,25,05,43,7.30
2008,06,25,05,44,7.30
2008,06,25,05,45,7.30
2008,06,25,05,46,7.30
2008,06,25,05,47,7.30
2008,06,25,05,48,7.30
2008,06,25,05,49,7.30
2008,06,25,05,50,7.30
2008,06,25,05,51,7.30
2008,06,25,05,52,7.30
2008,06,25,05,53,7.30
2008,06,25,05,54,7.30
2008,06,25,05,55,7.40
2008,06,25,05,56,7.40
2008,06,25,05,57,7.40
2008,06,25,05,58,7.40
2008,06,25,05,59,7.40
2008,06,25,06,00,7.40
2008,06,25,06,01,7.40
2008,06,25,06,02,7.40
2008,06,25,06,03,7.40
2008,06,25,06,04,7.40
2008,06,25,06,05,7.40
2008,06,25,06,06,7.40
2008,06,25,06,07,7.40
2008,06,25,06,08,7.40
2008,06,25,06,09,7.40
2008,06,25,06,10,7.40
2008,06,25,06,11,7.40
2008,06,25,06,12,7.40
2008,06,25,06,13,7.40
2008,06,25,06,14,7.40
2008,06,25,06,15,7.40
2008,06,25,06,16,7.40
2008,06,25,06,17,7.40
2008,06,25,06,18,7.40
2008,06,25,06,19,7.50
2008,06,25,06,20,7.50
2008,06,25,06,21,7.50
2008,06,25,06,22,7.60
2008,06,25,06,23,7.60
2008,06,25,06,24,7.60
2008,06,25,06,25,7.60
2008,06,25,06,26,7.70
2008,06,25,06,27,7.70
2008,06,25,06,28,7.70
2008,06,25,06,29,7.80
2008,06,25,06,30,7.80
2008,06,25,06,31,7.80
2008,06,25,06,32,7.90
2008,06,25,06,33,8.00
2008,06,25,06,34,8.00
2008,06,25,06,35,8.10
2008,06,25,06,36,8.20
2008,06,25,06,37,8.20
2008,06,25,06,38,8.30
2008,06,25,06,39,8.40
2008,06,25,06,40,8.40
2008,06,25,06,41,8.50
2008,06,25,06,42,8.50
2008,06,25,06,43,8.60
2008,06,25,06,44,8.60
2008,06,25,06,45,8.70
2008,06,25,06,46,8.70
2008,06,25,06,47,8.80
2008,06,25,06,48,8.90
2008,06,25,06,49,9.00
2008,06,25,06,50,9.00
2008,06,25,06,51,9.10
2008,06,25,06,52,9.20
2008,06,25,06,53,9.20
2008,06,25,06,54,9.20
2008,06,25,06,55,9.30
2008,06,25,06,56,9.30
2008,06,25,06,57,9.40
2008,06,25,06,58,9.40
2008,06,25,06,59,9.50
2008,06,25,07,00,9.50
2008,06,25,07,01,9.60
2008,06,25,07,02,9.60
2008,06,25,07,03,9.70
2008,06,25,07,04,9.70
2008,06,25,07,05,9.70
2008,06,25,07,06,9.80
2008,06,25,07,07,9.80
2008,06,25,07,08,9.90
2008,06,25,07,09,9.90
2008,06,25,07,10,9.90
2008,06,25,07,11,9.90
2008,06,25,07,12,10.00
2008,06,25,07,13,10.10
2008,06,25,07,14,10.20
2008,06,25,07,15,10.20
2008,06,25,07,16,10.30
2008,06,25,07,17,10.40
2008,06,25,07,18,10.40
2008,06,25,07,19,10.50
2008,06,25,07,20,10.60
2008,06,25,07,21,10.60
2008,06,25,07,22,10.60
2008,06,25,07,23,10.70
2008,06,25,07,24,10.80
2008,06,25,07,25,10.90
2008,06,25,07,26,11.00
2008,06,25,07,27,11.10
2008,06,25,07,28,11.20
2008,06,25,07,29,11.40
2008,06,25,07,30,11.50
2008,06,25,07,31,11.60
2008,06,25,07,32,11.70
2008,06,25,07,33,11.80
2008,06,25,07,34,11.80
2008,06,25,07,35,11.80
2008,06,25,07,36,11.80
2008,06,25,07,37,11.80
2008,06,25,07,38,11.80
2008,06,25,07,39,11.80
2008,06,25,07,40,11.80
2008,06,25,07,41,11.80
2008,06,25,07,42,11.80
2008,06,25,07,43,11.90
2008,06,25,07,44,11.90
2008,06,25,07,45,12.00
2008,06,25,07,46,12.10
2008,06,25,07,47,12.10
2008,06,25,07,48,12.20
2008,06,25,07,49,12.30
2008,06,25,07,50,12.30
2008,06,25,07,51,12.30
2008,06,25,07,52,12.30
2008,06,25,07,53,12.40
2008,06,25,07,54,12.40
2008,06,25,07,55,12.50
2008,06,25,07,56,12.50
2008,06,25,07,57,12.60
2008,06,25,07,58,12.60
2008,06,25,07,59,12.70
2008,06,25,08,00,12.80
2008,06,25,08,01,12.80
2008,06,25,08,02,12.80
2008,06,25,08,03,12.90
2008,06,25,08,04,12.90
2008,06,25,08,05,13.00
2008,06,25,08,06,13.10
2008,06,25,08,07,13.10
2008,06,25,08,08,13.20
2008,06,25,08,09,13.20
2008,06,25,08,10,13.30
2008,06,25,08,11,13.30
2008,06,25,08,12,13.40
2008,06,25,08,13,13.50
2008,06,25,08,14,13.50
2008,06,25,08,15,13.60
2008,06,25,08,16,13.60
2008,06,25,08,17,13.70
2008,06,25,08,18,13.80
2008,06,25,08,19,13.90
2008,06,25,08,20,14.00
2008,06,25,08,21,14.10
2008,06,25,08,22,14.10
2008,06,25,08,23,14.10
2008,06,25,08,24,14.10
2008,06,25,08,25,14.20
2008,06,25,08,26,14.20
2008,06,25,08,27,14.20
2008,06,25,08,28,14.20
2008,06,25,08,29,14.20
2008,06,25,08,30,14.40
2008,06,25,08,31,14.50
2008,06,25,08,32,14.60
2008,06,25,08,33,14.70
2008,06,25,08,34,14.80
2008,06,25,08,35,14.70
2008,06,25,08,36,14.70
2008,06,25,08,37,14.60
2008,06,25,08,38,14.60
2008,06,25,08,39,14.60
2008,06,25,08,40,14.70
2008,06,25,08,41,14.70
2008,06,25,08,42,14.60
2008,06,25,08,43,14.60
2008,06,25,08,44,14.60
2008,06,25,08,45,14.60
2008,06,25,08,46,14.60
2008,06,25,08,47,14.70
2008,06,25,08,48,14.80
2008,06,25,08,49,14.80
2008,06,25,08,50,14.80
2008,06,25,08,51,14.80
2008,06,25,08,52,14.80
2008,06,25,08,53,14.80
2008,06,25,08,54,14.80
2008,06,25,08,55,14.90
2008,06,25,08,56,14.90
2008,06,25,08,57,15.00
2008,06,25,08,58,15.00
2008,06,25,08,59,15.10
2008,06,25,09,00,15.10
2008,06,25,09,01,15.10
2008,06,25,09,02,15.10
2008,06,25,09,03,15.10
2008,06,25,09,04,15.10
2008,06,25,09,05,15.20
2008,06,25,09,06,15.30
2008,06,25,09,07,15.20
2008,06,25,09,08,15.20
2008,06,25,09,09,15.10
2008,06,25,09,10,15.20
2008,06,25,09,11,15.20
2008,06,25,09,12,15.20
2008,06,25,09,13,15.20
2008,06,25,09,14,15.30
2008,06,25,09,15,15.50
2008,06,25,09,16,15.60
2008,06,25,09,17,15.70
2008,06,25,09,18,15.70
2008,06,25,09,19,15.60
2008,06,25,09,20,15.60
2008,06,25,09,21,15.60
2008,06,25,09,22,15.50
2008,06,25,09,23,15.50
2008,06,25,09,24,15.40
2008,06,25,09,25,15.30
2008,06,25,09,26,15.30
2008,06,25,09,27,15.20
2008,06,25,09,28,15.10
2008,06,25,09,29,15.00
2008,06,25,09,30,14.90
2008,06,25,09,31,14.80
2008,06,25,09,32,14.70
2008,06,25,09,33,14.60
2008,06,25,09,34,14.50
2008,06,25,09,35,14.50
2008,06,25,09,36,14.50
2008,06,25,09,37,14.50
2008,06,25,09,38,14.50
2008,06,25,09,39,14.60
2008,06,25,09,40,14.60
2008,06,25,09,41,14.60
2008,06,25,09,42,14.60
2008,06,25,09,43,14.70
2008,06,25,09,44,14.80
2008,06,25,09,45,14.80
2008,06,25,09,46,14.80
2008,06,25,09,47,14.90
2008,06,25,09,48,15.00
2008,06,25,09,49,15.00
2008,06,25,09,50,15.10
2008,06,25,09,51,15.20
2008,06,25,09,52,15.20
2008,06,25,09,53,15.30
2008,06,25,09,54,15.30
2008,06,25,09,55,15.20
2008,06,25,09,56,15.20
2008,06,25,09,57,15.10
2008,06,25,09,58,15.10
2008,06,25,09,59,15.20
2008,06,25,10,00,15.30
2008,06,25,10,01,15.20
2008,06,25,10,02,15.20
2008,06,25,10,03,15.20
2008,06,25,10,04,15.20
2008,06,25,10,05,15.20
2008,06,25,10,06,15.20
2008,06,25,10,07,15.20
2008,06,25,10,08,15.30
2008,06,25,10,09,15.20
2008,06,25,10,10,15.20
2008,06,25,10,11,15.20
2008,06,25,10,12,15.20
2008,06,25,10,13,15.30
2008,06,25,10,14,15.20
2008,06,25,10,15,15.20
2008,06,25,10,16,15.30
2008,06,25,10,17,15.30
2008,06,25,10,18,15.30
2008,06,25,10,19,15.20
2008,06,25,10,20,15.10
2008,06,25,10,21,15.10
2008,06,25,10,22,15.00
2008,06,25,10,23,15.00
2008,06,25,10,24,14.90
2008,06,25,10,25,14.90
2008,06,25,10,26,14.90
2008,06,25,10,27,14.90
2008,06,25,10,28,15.00
2008,06,25,10,29,15.00
2008,06,25,10,30,15.10
2008,06,25,10,31,15.10
2008,06,25,10,32,15.20
2008,06,25,10,33,15.30
2008,06,25,10,34,15.50
2008,06,25,10,35,15.70
2008,06,25,10,36,15.80
2008,06,25,10,37,15.80
2008,06,25,10,38,15.80
2008,06,25,10,39,15.80
2008,06,25,10,40,15.80
2008,06,25,10,41,15.80
2008,06,25,10,42,15.80
2008,06,25,10,43,15.80
2008,06,25,10,44,15.80
2008,06,25,10,45,15.70
2008,06,25,10,46,15.60
2008,06,25,10,47,15.50
2008,06,25,10,48,15.50
2008,06,25,10,49,15.40
2008,06,25,10,50,15.50
2008,06,25,10,51,15.60
2008,06,25,10,52,15.70
2008,06,25,10,53,15.80
2008,06,25,10,54,15.90
2008,06,25,10,55,16.10
2008,06,25,10,56,16.20
2008,06,25,10,57,16.30
2008,06,25,10,58,16.40
2008,06,25,10,59,16.40
2008,06,25,11,00,16.30
2008,06,25,11,01,16.10
2008,06,25,11,02,16.10
2008,06,25,11,03,16.10
2008,06,25,11,04,16.20
2008,06,25,11,05,16.30
2008,06,25,11,06,16.40
2008,06,25,11,07,16.40
2008,06,25,11,08,16.50
2008,06,25,11,09,16.60
2008,06,25,11,10,16.60
2008,06,25,11,11,16.70
2008,06,25,11,12,16.70
2008,06,25,11,13,16.80
2008,06,25,11,14,16.80
2008,06,25,11,15,16.80
2008,06,25,11,16,16.80
2008,06,25,11,17,16.80
2008,06,25,11,18,16.70
2008,06,25,11,19,16.70
2008,06,25,11,20,16.60
2008,06,25,11,21,16.60
2008,06,25,11,22,16.60
2008,06,25,11,23,16.50
2008,06,25,11,24,16.50
2008,06,25,11,25,16.40
2008,06,25,11,26,16.30
2008,06,25,11,27,16.20
2008,06,25,11,28,16.10
2008,06,25,11,29,16.10
2008,06,25,11,30,16.20
2008,06,25,11,31,16.20
2008,06,25,11,32,16.20
2008,06,25,11,33,16.20
2008,06,25,11,34,16.20
2008,06,25,11,35,16.20
2008,06,25,11,36,16.20
2008,06,25,11,37,16.10
2008,06,25,11,38,16.10
2008,06,25,11,39,16.10
2008,06,25,11,40,16.10
2008,06,25,11,41,16.10
2008,06,25,11,42,16.10
2008,06,25,11,43,16.00
2008,06,25,11,44,15.90
2008,06,25,11,45,15.90
2008,06,25,11,46,16.00
2008,06,25,11,47,16.10
2008,06,25,11,48,16.10
2008,06,25,11,49,16.20
2008,06,25,11,50,16.30
2008,06,25,11,51,16.50
2008,06,25,11,52,16.70
2008,06,25,11,53,16.70
2008,06,25,11,54,16.70
2008,06,25,11,55,16.70
2008,06,25,11,56,16.70
2008,06,25,11,57,16.70
2008,06,25,11,58,16.60
2008,06,25,11,59,16.40
2008,06,25,12,00,16.30
2008,06,25,12,01,16.30
2008,06,25,12,02,16.40
2008,06,25,12,03,16.40
2008,06,25,12,04,16.70
2008,06,25,12,05,16.70
2008,06,25,12,06,16.70
2008,06,25,12,07,16.80
2008,06,25,12,08,16.90
2008,06,25,12,09,17.00
2008,06,25,12,10,17.00
2008,06,25,12,11,17.10
2008,06,25,12,12,17.00
2008,06,25,12,13,16.90
2008,06,25,12,14,16.90
2008,06,25,12,15,16.80
2008,06,25,12,16,16.80
2008,06,25,12,17,16.80
2008,06,25,12,18,16.90
2008,06,25,12,19,17.00
2008,06,25,12,20,16.90
2008,06,25,12,21,16.90
2008,06,25,12,22,16.70
2008,06,25,12,23,16.60
2008,06,25,12,24,16.50
2008,06,25,12,25,16.40
2008,06,25,12,26,16.40
2008,06,25,12,27,16.40
2008,06,25,12,28,16.40
2008,06,25,12,29,16.40
2008,06,25,12,30,16.40
2008,06,25,12,31,16.40
2008,06,25,12,32,16.50
2008,06,25,12,33,16.60
2008,06,25,12,34,16.60
2008,06,25,12,35,16.70
2008,06,25,12,36,16.70
2008,06,25,12,37,16.70
2008,06,25,12,38,16.90
2008,06,25,12,39,16.90
2008,06,25,12,40,17.00
2008,06,25,12,41,17.00
2008,06,25,12,42,17.10
2008,06,25,12,43,17.10
2008,06,25,12,44,17.00
2008,06,25,12,45,16.90
2008,06,25,12,46,16.90
2008,06,25,12,47,17.00
2008,06,25,12,48,17.20
2008,06,25,12,49,17.30
2008,06,25,12,50,17.10
2008,06,25,12,51,16.90
2008,06,25,12,52,16.80
2008,06,25,12,53,16.80
2008,06,25,12,54,16.70
2008,06,25,12,55,16.70
2008,06,25,12,56,16.80
2008,06,25,12,57,16.80
2008,06,25,12,58,16.80
2008,06,25,12,59,16.70
2008,06,25,13,00,16.70
2008,06,25,13,01,16.80
2008,06,25,13,02,16.80
2008,06,25,13,03,16.80
2008,06,25,13,04,16.70
2008,06,25,13,05,16.90
2008,06,25,13,06,17.00
2008,06,25,13,07,17.20
2008,06,25,13,08,17.20
2008,06,25,13,09,17.30
2008,06,25,13,10,17.30
2008,06,25,13,11,17.30
2008,06,25,13,12,17.30
2008,06,25,13,13,17.30
2008,06,25,13,14,17.30
2008,06,25,13,15,17.30
2008,06,25,13,16,17.30
2008,06,25,13,17,17.30
2008,06,25,13,18,17.50
2008,06,25,13,19,17.80
2008,06,25,13,20,17.80
2008,06,25,13,21,17.80
2008,06,25,13,22,17.70
2008,06,25,13,23,17.80
2008,06,25,13,24,17.90
2008,06,25,13,25,17.90
2008,06,25,13,26,17.90
2008,06,25,13,27,18.10
2008,06,25,13,28,18.30
2008,06,25,13,29,18.30
2008,06,25,13,30,18.30
2008,06,25,13,31,18.30
2008,06,25,13,32,18.30
2008,06,25,13,33,18.30
2008,06,25,13,34,18.50
2008,06,25,13,35,18.60
2008,06,25,13,36,18.50
2008,06,25,13,37,18.40
2008,06,25,13,38,18.40
2008,06,25,13,39,18.30
2008,06,25,13,40,18.50
2008,06,25,13,41,18.70
2008,06,25,13,42,18.90
2008,06,25,13,43,18.90
2008,06,25,13,44,18.90
2008,06,25,13,45,18.90
2008,06,25,13,46,18.50
2008,06,25,13,47,18.30
2008,06,25,13,48,18.30
2008,06,25,13,49,18.20
2008,06,25,13,50,18.40
2008,06,25,13,51,18.50
2008,06,25,13,52,18.50
2008,06,25,13,53,18.40
2008,06,25,13,54,18.50
2008,06,25,13,55,18.60
2008,06,25,13,56,18.80
2008,06,25,13,57,18.90
2008,06,25,13,58,18.90
2008,06,25,13,59,19.10
2008,06,25,14,00,19.20
2008,06,25,14,01,19.10
2008,06,25,14,02,19.00
2008,06,25,14,03,18.90
2008,06,25,14,04,18.80
2008,06,25,14,05,19.00
2008,06,25,14,06,19.10
2008,06,25,14,07,19.30
2008,06,25,14,08,19.50
2008,06,25,14,09,19.60
2008,06,25,14,10,19.80
2008,06,25,14,11,19.90
2008,06,25,14,12,20.00
2008,06,25,14,13,20.20
2008,06,25,14,14,20.40
2008,06,25,14,15,20.50
2008,06,25,14,16,20.60
2008,06,25,14,17,20.50
2008,06,25,14,18,20.50
2008,06,25,14,19,20.60
2008,06,25,14,20,20.90
2008,06,25,14,21,21.00
2008,06,25,14,22,21.20
2008,06,25,14,23,21.20
2008,06,25,14,24,21.10
2008,06,25,14,25,20.90
2008,06,25,14,26,20.90
2008,06,25,14,27,20.90
2008,06,25,14,28,21.00
2008,06,25,14,29,21.00
2008,06,25,14,30,21.20
2008,06,25,14,31,21.30
2008,06,25,14,32,21.20
2008,06,25,14,33,21.20
2008,06,25,14,34,21.30
2008,06,25,14,35,21.30
2008,06,25,14,36,21.50
2008,06,25,14,37,21.60
2008,06,25,14,38,21.60
2008,06,25,14,39,21.70
2008,06,25,14,40,21.60
2008,06,25,14,41,21.60
2008,06,25,14,42,21.40
2008,06,25,14,43,20.90
2008,06,25,14,44,20.40
2008,06,25,14,45,20.00
2008,06,25,14,46,19.80
2008,06,25,14,47,19.70
2008,06,25,14,48,19.60
2008,06,25,14,49,19.60
2008,06,25,14,50,19.70
2008,06,25,14,51,19.80
2008,06,25,14,52,19.70
2008,06,25,14,53,19.70
2008,06,25,14,54,19.80
2008,06,25,14,55,19.80
2008,06,25,14,56,19.90
2008,06,25,14,57,20.00
2008,06,25,14,58,20.10
2008,06,25,14,59,20.30
2008,06,25,15,00,20.30
2008,06,25,15,01,20.30
2008,06,25,15,02,20.40
2008,06,25,15,03,20.50
2008,06,25,15,04,20.60
2008,06,25,15,05,20.80
2008,06,25,15,06,21.00
2008,06,25,15,07,21.10
2008,06,25,15,08,21.10
2008,06,25,15,09,21.10
2008,06,25,15,10,21.10
2008,06,25,15,11,21.20
2008,06,25,15,12,21.30
2008,06,25,15,13,21.20
2008,06,25,15,14,21.00
2008,06,25,15,15,20.70
2008,06,25,15,16,20.30
2008,06,25,15,17,20.00
2008,06,25,15,18,19.90
2008,06,25,15,19,19.90
2008,06,25,15,20,19.70
2008,06,25,15,21,19.70
2008,06,25,15,22,19.70
2008,06,25,15,23,19.60
2008,06,25,15,24,19.60
2008,06,25,15,25,19.80
2008,06,25,15,26,19.70
2008,06,25,15,27,19.70
2008,06,25,15,28,19.80
2008,06,25,15,29,19.90
2008,06,25,15,30,19.90
2008,06,25,15,31,20.10
2008,06,25,15,32,20.30
2008,06,25,15,33,20.40
2008,06,25,15,34,20.50
2008,06,25,15,35,20.60
2008,06,25,15,36,20.60
2008,06,25,15,37,20.50
2008,06,25,15,38,20.40
2008,06,25,15,39,20.50
2008,06,25,15,40,20.70
2008,06,25,15,41,20.70
2008,06,25,15,42,20.70
2008,06,25,15,43,20.70
2008,06,25,15,44,20.80
2008,06,25,15,45,20.80
2008,06,25,15,46,20.80
2008,06,25,15,47,20.60
2008,06,25,15,48,20.30
2008,06,25,15,49,20.00
2008,06,25,15,50,19.90
2008,06,25,15,51,19.90
2008,06,25,15,52,19.90
2008,06,25,15,53,20.00
2008,06,25,15,54,20.20
2008,06,25,15,55,20.30
2008,06,25,15,56,20.40
2008,06,25,15,57,20.50
2008,06,25,15,58,20.60
2008,06,25,15,59,20.70
2008,06,25,16,00,20.70
2008,06,25,16,01,20.50
2008,06,25,16,02,20.40
2008,06,25,16,03,20.40
2008,06,25,16,04,20.30
2008,06,25,16,05,20.20
2008,06,25,16,06,20.00
2008,06,25,16,07,19.90
2008,06,25,16,08,19.90
2008,06,25,16,09,19.60
2008,06,25,16,10,19.50
2008,06,25,16,11,19.50
2008,06,25,16,12,19.40
2008,06,25,16,13,19.20
2008,06,25,16,14,19.10
2008,06,25,16,15,19.20
2008,06,25,16,16,19.30
2008,06,25,16,17,19.40
2008,06,25,16,18,19.50
2008,06,25,16,19,19.50
2008,06,25,16,20,19.50
2008,06,25,16,21,19.60
2008,06,25,16,22,19.70
2008,06,25,16,23,19.70
2008,06,25,16,24,19.70
2008,06,25,16,25,19.70
2008,06,25,16,26,19.70
2008,06,25,16,27,19.70
2008,06,25,16,28,19.90
2008,06,25,16,29,20.00
2008,06,25,16,30,20.20
2008,06,25,16,31,20.40
2008,06,25,16,32,20.50
2008,06,25,16,33,20.40
2008,06,25,16,34,20.40
2008,06,25,16,35,20.30
2008,06,25,16,36,20.30
2008,06,25,16,37,20.30
2008,06,25,16,38,20.30
2008,06,25,16,39,20.30
2008,06,25,16,40,20.50
2008,06,25,16,41,20.50
2008,06,25,16,42,20.60
2008,06,25,16,43,20.70
2008,06,25,16,44,20.80
2008,06,25,16,45,20.90
2008,06,25,16,46,21.00
2008,06,25,16,47,21.10
2008,06,25,16,48,21.20
2008,06,25,16,49,21.30
2008,06,25,16,50,21.30
2008,06,25,16,51,21.20
2008,06,25,16,52,21.10
2008,06,25,16,53,21.10
2008,06,25,16,54,21.10
2008,06,25,16,55,21.10
2008,06,25,16,56,21.10
2008,06,25,16,57,21.10
2008,06,25,16,58,21.10
2008,06,25,16,59,21.00
2008,06,25,17,00,21.00
2008,06,25,17,01,20.80
2008,06,25,17,02,20.80
2008,06,25,17,03,20.80
2008,06,25,17,04,20.80
2008,06,25,17,05,20.80
2008,06,25,17,06,20.80
2008,06,25,17,07,20.70
2008,06,25,17,08,20.70
2008,06,25,17,09,20.60
2008,06,25,17,10,20.60
2008,06,25,17,11,20.60
2008,06,25,17,12,20.60
2008,06,25,17,13,20.50
2008,06,25,17,14,20.60
2008,06,25,17,15,20.60
2008,06,25,17,16,20.50
2008,06,25,17,17,20.50
2008,06,25,17,18,20.50
2008,06,25,17,19,20.50
2008,06,25,17,20,20.40
2008,06,25,17,21,20.30
2008,06,25,17,22,20.40
2008,06,25,17,23,20.40
2008,06,25,17,24,20.50
2008,06,25,17,25,20.50
2008,06,25,17,26,20.50
2008,06,25,17,27,20.50
2008,06,25,17,28,20.50
2008,06,25,17,29,20.50
2008,06,25,17,30,20.60
2008,06,25,17,31,20.70
2008,06,25,17,32,20.70
2008,06,25,17,33,20.70
2008,06,25,17,34,20.60
2008,06,25,17,35,20.50
2008,06,25,17,36,20.50